Location: Arrow Head Lodge
(44.7836°N, 106.9681°W)
Time: 08:03:10
(UTC+00:00)

Envisat - Visible Passes

Search period start: 18 October 2021 00:00
Search period end: 28 October 2021 00:00
Orbit: 764 x 766 km, 98.2° (Epoch: 17 October)

Date Brightness Start Highest point End Pass type
(mag) Time Alt. Az. Time Alt. Az. Time Alt. Az.
18 Oct 6.6 01:00:34 10° WSW 01:02:21 12° W 01:04:08 10° WNW visible
18 Oct 5.2 11:25:04 10° NE 11:29:21 26° E 11:33:35 10° SSE visible
19 Oct 6.1 10:50:04 10° ENE 10:52:04 12° E 10:54:05 10° ESE visible
19 Oct 3.0 12:26:38 10° NNE 12:31:45 85° WNW 12:36:50 10° SSW visible
20 Oct 4.2 11:49:57 10° NNE 11:54:50 45° E 11:59:40 10° S visible
21 Oct 6.2 00:47:47 10° SW 00:50:40 15° W 00:53:34 10° NW visible
21 Oct 5.5 11:13:52 10° NE 11:17:43 21° E 11:21:32 10° SE visible
21 Oct 3.2 12:52:05 10° N 12:57:00 51° WNW 13:01:54 10° SW visible
22 Oct 3.2 12:15:07 10° NNE 12:20:14 77° ESE 12:25:18 10° S visible
23 Oct 4.6 11:38:34 10° NNE 11:43:15 35° E 11:47:53 10° SSE visible
24 Oct 6.0 00:35:26 10° SW 00:39:01 19° W 00:42:36 10° NW visible
24 Oct 5.8 11:02:49 10° NE 11:06:04 17° E 11:09:18 10° SE visible
24 Oct 3.0 12:40:29 10° N 12:45:31 64° WNW 12:50:32 10° SSW visible
25 Oct 3.6 12:03:38 10° NNE 12:08:41 61° E 12:13:41 10° S visible
26 Oct 6.6 01:03:28 10° W 01:04:40 11° W 01:05:52 10° WNW visible
26 Oct 5.0 11:27:15 10° NE 11:31:38 28° E 11:35:59 10° SSE visible
26 Oct 3.5 13:06:03 10° N 13:10:43 38° WNW 13:15:23 10° SW visible
27 Oct 6.1 10:52:00 10° ENE 10:54:23 13° E 10:56:46 10° ESE visible
27 Oct 2.9 12:28:55 10° N 12:34:01 80° WNW 12:39:05 10° SSW visible
